Regional Weather Roundup
Issued by NWS

Home | Current Version | Previous Version | Text Only | Print | Product List | Glossary Off
Versions: 1 2 3 4 5 6 7 8 9 10 11 12 13 14 15 16 17 18 19 20 21 22 23 24 25 26 27 28 29 30 31 32 33 34 35 36 37 38 39 40 41 42 43 44 45 46 47 48 49 50

000
ASUS43 KDTX 290801
RWRMI
MICHIGAN HOURLY REGIONAL WEATHER ROUNDUP
NATIONAL WEATHER SERVICE DETROIT/PONTIAC MI
400 AM EDT SAT APR 29 2017

NOTE: "FAIR" INDICATES FEW OR NO CLOUDS BELOW 12,000 FEET WITH NO
SIGNIFICANT WEATHER AND/OR OBSTRUCTION TO VISIBILITY.

MIZ047>049-052>055-059>063-066>070-074>076-081>083-290900-
SOUTHEAST LOWER MICHIGAN

CITY           SKY/WX    TMP DP  RH WIND       PRES   REMARKS
ADRIAN         CLOUDY    54  52  93 CALM      29.98R
ALMA           CLOUDY    46  39  76 N8        30.05R
ANN ARBOR      CLOUDY    54  50  86 NW8       29.97F
BAD AXE        CLOUDY    40  32  73 NE7       30.07R
CARO           CLOUDY    42  35  74 NE6       30.05R
DETROIT CITY   CLOUDY    56  51  84 N6        29.99S
DETROIT        CLOUDY    55  52  89 CALM      29.99S
FLINT          MOCLDY    47  39  74 N13       30.02R
GROSSE ILE     CLOUDY    54  52  92 CALM      29.97S
HILLSDALE      CLOUDY    50  46  87 CALM      29.97R
HOWELL         CLOUDY    52  46  80 NW3       29.99F

CITY           SKY/WX    TMP DP  RH WIND       PRES   REMARKS
JACKSON        CLOUDY    51  46  83 N7        29.99F
LAMBERTVILLE   DRIZZLE   53  52  97 CALM      29.97F
LANSING        CLOUDY    51  42  71 N17G23    30.00S
LAPEER         CLOUDY    44  38  78 NE7       30.03R
MASON          CLOUDY    53  48  83 S3        30.00S
MONROE         CLOUDY    55  53  95 CALM      29.97F
MT. CLEMENS    CLOUDY    53  51  94 CALM      29.99S
PONTIAC        PTCLDY    52  47  83 CALM      29.99R
PORT HOPE        N/A     42  34  73 N16       30.05R
PORT HURON     CLOUDY    41  32  70 NE8G17    30.04S
TRI CITIES     CLOUDY    46  41  82 NE13      30.06R
MIDLAND        CLOUDY    46  37  70 N6        30.06R
TROY           CLOUDY    55  47  72 CALM      30.01S
SAGINAW HB     CLOUDY    43  34  70 NE10      30.05R
$$
MIZ043>046-050>051-056>058-064>065-071>073-077>080-290900-
SOUTHWEST LOWER MICHIGAN

CITY           SKY/WX    TMP DP  RH WIND       PRES   REMARKS
BATTLE CREEK   CLOUDY    53  46  77 N7        30.01F
BENTON HARBOR  CLOUDY    51  41  68 N5        30.02R
BIG RAPIDS     CLOUDY    42  33  69 N8        30.05R
COLDWATER      CLOUDY    52  48  86 N6        29.96F
FREMONT        CLOUDY    44  32  62 N7        30.05R
HOLLAND        LGT RAIN  46  41  82 NE8       30.07R
GRAND RAPIDS   CLOUDY    47  41  80 N10       30.06R
IONIA          CLOUDY    49  39  70 N9        30.05R
KALAMAZOO      CLOUDY    53  43  68 N8        30.01F
LUDINGTON      CLOUDY    40  36  83 NE6       30.09R
MARSHALL       CLOUDY    49  47  92 CALM      29.99S
MOUNT PLEASANT CLOUDY    43  35  71 N8        30.06R
MUSKEGON       CLOUDY    47  35  63 NE9       30.07R
SOUTH HAVEN    CLOUDY    49  40  71 N10       30.03R
$$
MIZ016>042-290900-
NORTHERN LOWER MICHIGAN

CITY           SKY/WX    TMP DP  RH WIND       PRES   REMARKS
ALPENA         CLOUDY    39  31  72 NW6       30.07R WCI  35
BEAVER ISLAND  CLOUDY    35  26  69 NW7       30.12S WCI  29
BELLAIRE       CLOUDY    40  30  68 N6        30.09S
CADILLAC       CLOUDY    39  33  79 N7        30.06R WCI  34
CHARLEVOIX     CLOUDY    37  31  81 NW13      30.12F WCI  28
FRANKFORT      CLOUDY    41  32  70 CALM      30.10R
GAYLORD        CLOUDY    38  26  62 NW8       30.05S WCI  32
GRAYLING       CLOUDY    38  31  77 N6        30.06R WCI  33
HARBOR SPRINGS CLOUDY    37  27  67 NW12G17   30.09S WCI  29
HOUGHTON LAKE  CLOUDY    40  30  67 N6        30.06R
MANISTEE       CLOUDY    42  33  70 N9        30.10R
OSCODA         CLOUDY    41  32  68 CALM      30.07R
PELLSTON         N/A     37  25  61 NW14      30.09  WCI  28
ROGERS CITY    CLOUDY    38  28  67 NW10G20   30.07S WCI  31
TRAVERSE CITY  CLOUDY    41  32  70 N6        30.09R
$$
MIZ007>008-015-290900-
EASTERN UPPER MICHIGAN

CITY           SKY/WX    TMP DP  RH WIND       PRES   REMARKS
MACKINAC ISLAN CLOUDY    35  26  68 NW9G17    30.09R WCI  28
NEWBERRY       CLOUDY    32  26  77 NW6       30.10R WCI  26
S. S. MARIE    CLOUDY    36  22  56 NW12G22   30.08R WCI  28
MUNISING         N/A     36  30  79 NW12      30.13R WCI  28
$$
MIZ004>006-011>014-085-290900-
CENTRAL UPPER MICHIGAN

CITY           SKY/WX    TMP DP  RH WIND       PRES   REMARKS
MANISTIQUE     CLOUDY    33  29  85 NW6       30.12S WCI  27
ESCANABA       CLEAR     31  26  82 NW3       30.15R
MENOMINEE      MOCLDY    34  26  72 N6        30.14F WCI  29
SAWYER-GWINN   CLEAR     28  25  87 NW6       30.13R WCI  22
$$
MIZ001>003-009>011-084-290900-
WESTERN UPPER MICHIGAN

CITY           SKY/WX    TMP DP  RH WIND       PRES   REMARKS
IRON MOUNTAIN  CLEAR     29  23  78 NW7       30.13R WCI  22
HOUGHTON       CLEAR     31  24  75 W3        30.16R
COPPER HARBOR    N/A     37  26  64 NE21G29   30.15R WCI  26
IRONWOOD       CLEAR     24  23  96 CALM      30.21R
$$

ABBREVIATIONS USED IN REMARKS
   TC - TEMPERATURE IN CELSIUS
  WCI - WIND CHILL INDEX
   HX - HEAT INDEX
  VSB - VISIBILITY




USA.gov is the U.S. government's official web portal to all federal, state and local government web resources and services.